This is the latest recevied weather packets stored in our database for station/object VK2ZAZ-10. If no packets are shown the sender has not sent any weather packets the latest 10 day(s).
| Time | Temp. | Humidity | Pressure | Rain* | Wind** | Luminosity | Snow |
|---|---|---|---|---|---|---|---|
| 1778354078 | 15° C | 50% | 1030.1 hPa | - | - | - | - |
| 1778352279 | 15° C | 50% | 1029.8 hPa | - | - | - | - |
| 1778350480 | 15.56° C | 50% | 1029.4 hPa | - | - | - | - |
| 1778348679 | 15.56° C | 50% | 1029.1 hPa | - | - | - | - |
| 1778346877 | 15.56° C | 49% | 1029 hPa | - | - | - | - |
| 1778345077 | 15.56° C | 49% | 1028.8 hPa | - | - | - | - |
| 1778343279 | 15.56° C | 49% | 1028.8 hPa | - | - | - | - |
| 1778341477 | 15.56° C | 49% | 1028.8 hPa | - | - | - | - |
| 1778339677 | 16.11° C | 49% | 1028.9 hPa | - | - | - | - |
| 1778337879 | 16.11° C | 49% | 1028.7 hPa | - | - | - | - |
| 1778336077 | 16.11° C | 48% | 1028.8 hPa | - | - | - | - |
| 1778334278 | 16.67° C | 48% | 1028.8 hPa | - | - | - | - |
| 1778332477 | 16.67° C | 48% | 1028.9 hPa | - | - | - | - |
| 1778330678 | 17.22° C | 47% | 1028.8 hPa | - | - | - | - |
| 1778328877 | 17.22° C | 47% | 1028.9 hPa | - | - | - | - |
| 1778327077 | 17.22° C | 47% | 1028.9 hPa | - | - | - | - |
| 1778325277 | 17.78° C | 46% | 1028.6 hPa | - | - | - | - |
| 1778323477 | 18.33° C | 45% | 1028.5 hPa | - | - | - | - |
| 1778321677 | 18.33° C | 45% | 1028.3 hPa | - | - | - | - |
| 1778319877 | 18.89° C | 45% | 1028.2 hPa | - | - | - | - |
| 1778318076 | 18.89° C | 45% | 1027.9 hPa | - | - | - | - |
| 1778316278 | 19.44° C | 44% | 1027.7 hPa | - | - | - | - |
| 1778314476 | 19.44° C | 44% | 1027.4 hPa | - | - | - | - |
| 1778312676 | 20° C | 44% | 1026.9 hPa | - | - | - | - |
| 1778310876 | 20° C | 44% | 1026.5 hPa | - | - | - | - |
* Rain since midnight (hover to see other rain measurements)
** Current wind speed in m/s (hover to see current wind gust speed)